This is the latest recevied weather packets stored in our database for station/object K3RUP-1. If no packets are shown the sender has not sent any weather packets the latest 10 day(s).
| Time | Temp. | Humidity | Pressure | Rain* | Wind** | Luminosity | Snow |
|---|---|---|---|---|---|---|---|
| 1777232977 | 12.22° C | 76% | 1018.9 hPa | 0 mm | - | 161 W/m² | - |
| 1777232674 | 12.22° C | 76% | 1018.9 hPa | 0 mm | - | 246 W/m² | - |
| 1777232372 | 12.22° C | 75% | 1018.9 hPa | 0 mm | - | 266 W/m² | - |
| 1777232068 | 12.22° C | 75% | 1019 hPa | 0 mm | - | 322 W/m² | - |
| 1777231766 | 12.78° C | 75% | 1018.9 hPa | 0 mm | - | 262 W/m² | - |
| 1777231462 | 12.78° C | 76% | 1019.2 hPa | 0 mm | - | 289 W/m² | - |
| 1777231159 | 12.22° C | 77% | 1019 hPa | 0 mm | - | 317 W/m² | - |
| 1777230854 | 12.22° C | 76% | 1019 hPa | 0 mm | - | 287 W/m² | - |
| 1777230550 | 12.78° C | 76% | 1018.8 hPa | 0 mm | - | 298 W/m² | - |
| 1777230246 | 12.22° C | 76% | 1019.1 hPa | 0 mm | - | 316 W/m² | - |
| 1777229943 | 11.67° C | 77% | 1019.2 hPa | 0 mm | - | 321 W/m² | - |
| 1777229639 | 11.67° C | 78% | 1019 hPa | 0 mm | - | 356 W/m² | - |
| 1777229336 | 11.11° C | 79% | 1019.3 hPa | 0 mm | - | 232 W/m² | - |
| 1777229033 | 11.11° C | 80% | 1019.1 hPa | 0 mm | - | 154 W/m² | - |
| 1777228730 | 11.67° C | 78% | 1019.2 hPa | 0 mm | - | 152 W/m² | - |
| 1777228425 | 11.67° C | 78% | 1019.1 hPa | 0 mm | - | 224 W/m² | - |
| 1777228121 | 11.67° C | 79% | 1019.2 hPa | 0 mm | - | 252 W/m² | - |
| 1777227820 | 11.11° C | 80% | 1019.2 hPa | 0 mm | - | 235 W/m² | - |
| 1777227518 | 11.11° C | 80% | 1019.2 hPa | 0 mm | - | 195 W/m² | - |
| 1777227213 | 10.56° C | 81% | 1019.1 hPa | 0 mm | - | 196 W/m² | - |
| 1777226910 | 10.56° C | 81% | 1019.2 hPa | 0 mm | - | 103 W/m² | - |
| 1777226608 | 10.56° C | 81% | 1019.2 hPa | 0 mm | - | 125 W/m² | - |
| 1777226304 | 10.56° C | 81% | 1019.3 hPa | 0 mm | - | 117 W/m² | - |
| 1777226000 | 10.56° C | 81% | 1019.6 hPa | 0 mm | - | 160 W/m² | - |
| 1777225701 | 10.56° C | 82% | 1019.4 hPa | 0 mm | - | 111 W/m² | - |
* Rain latest hour (hover to see other rain measurements)
** Current wind speed in m/s (hover to see current wind gust speed)